Location: Bartshausen
(51.8454°N, 9.8167°E)
Time: 06:12:35
(UTC+00:00)

Cosmos 2123 Rocket - Pass Details

Date: 08 November 2025
Orbit: 960 x 991 km, 82.9° (Epoch: 11 December)

Event Time Altitude Azimuth Distance (km) Brightness Sun altitude
Rises 03:50:24 0° 175° (S) 3,660 7.0 -24.4°
Reaches altitude 10° 03:52:55 10° 172° (S) 2,712 6.4 -24.0°
Maximum altitude 03:59:00 61° 94° (E) 1,097 4.5 -23.1°
Drops below altitude 10° 04:05:06 10° 16° (NNE) 2,713 6.5 -22.1°
Sets 04:07:38 0° 13° (NNE) 3,662 7.2 -21.7°
